When you browse on this site, cookies collect data to enhance your experience and personalize the content and advertising you see.
Visit our Privacy Policy to learn more. By continuing to use the site, you agree to this use of cookies and data.
  • In Switzerland
  • List of Countries
  • For 7 days
  • Water Temperature
  • Satellite Maps
  • Weather Map
  • Weather Widgets
  • user-avatar
    Login

    Hourly Weather Huckelhoven

    Today, 24 May, Friday

    Time Temperature Precipitation Wind Pressure Humidity
    00:00 +14°C° 0 mm 1 mps 758 mmHg 67%
    01:00 +13°C° 0 mm 1 mps 757 mmHg 70%
    02:00 +13°C° 0 mm 2 mps 757 mmHg 73%
    03:00 +13°C° 0 mm 2 mps 757 mmHg 75%
    04:00 +14°C° 0 mm 2 mps 757 mmHg 75%
    05:00 +15°C° 0 mm 2 mps 757 mmHg 74%
    06:00 +16°C° 0 mm 2 mps 757 mmHg 73%
    07:00 +18°C° 0 mm 2 mps 757 mmHg 69%
    08:00 +19°C° 0 mm 2 mps 757 mmHg 64%
    09:00 +21°C° 0 mm 2 mps 757 mmHg 60%
    10:00 +21°C° 0.6 mm 2 mps 757 mmHg 60%
    11:00 +22°C° 0.6 mm 3 mps 756 mmHg 61%
    12:00 +22°C° 0.6 mm 3 mps 756 mmHg 61%
    13:00 +22°C° 0.7 mm 3 mps 756 mmHg 61%
    14:00 +22°C° 0.7 mm 3 mps 756 mmHg 61%
    15:00 +22°C° 0.7 mm 3 mps 756 mmHg 60%
    16:00 +21°C° 0.2 mm 3 mps 756 mmHg 63%
    17:00 +20°C° 0.2 mm 3 mps 756 mmHg 66%
    18:00 +19°C° 0.2 mm 3 mps 756 mmHg 68%
    19:00 +17°C° 0 mm 3 mps 756 mmHg 69%
    20:00 +14°C° 0 mm 3 mps 757 mmHg 69%
    21:00 +13°C° 0 mm 2 mps 757 mmHg 70%
    22:00 +13°C° 0 mm 2 mps 757 mmHg 74%
    23:00 +12°C° 0 mm 2 mps 757 mmHg 77%

    Tomorrow, 25 May, Saturday

    Time Temperature Precipitation Wind Pressure Humidity
    00:00 +11°C° 0 mm 1 mps 758 mmHg 81%
    01:00 +10°C° 0 mm 1 mps 758 mmHg 84%
    02:00 +9°C° 0 mm 2 mps 758 mmHg 87%
    03:00 +8°C° 0 mm 2 mps 758 mmHg 90%
    04:00 +9°C° 0 mm 2 mps 758 mmHg 87%
    05:00 +10°C° 0 mm 2 mps 758 mmHg 84%
    06:00 +12°C° 0 mm 2 mps 758 mmHg 82%
    07:00 +13°C° 0 mm 2 mps 758 mmHg 76%
    08:00 +15°C° 0 mm 2 mps 758 mmHg 70%
    09:00 +16°C° 0 mm 2 mps 758 mmHg 64%
    10:00 +17°C° 0 mm 3 mps 758 mmHg 65%
    11:00 +17°C° 0 mm 3 mps 757 mmHg 66%
    12:00 +17°C° 0 mm 3 mps 757 mmHg 67%
    13:00 +18°C° 0.7 mm 3 mps 757 mmHg 68%
    14:00 +18°C° 0.7 mm 3 mps 757 mmHg 70%
    15:00 +18°C° 0.7 mm 3 mps 756 mmHg 71%
    16:00 +18°C° 0.6 mm 3 mps 756 mmHg 74%
    17:00 +17°C° 0.6 mm 3 mps 757 mmHg 77%
    18:00 +16°C° 0.6 mm 3 mps 757 mmHg 80%
    19:00 +14°C° 0.1 mm 3 mps 757 mmHg 82%
    20:00 +13°C° 0.1 mm 3 mps 757 mmHg 85%
    21:00 +11°C° 0.1 mm 3 mps 758 mmHg 87%
    22:00 +10°C° 0 mm 3 mps 757 mmHg 89%
    23:00 +10°C° 0 mm 3 mps 757 mmHg 90%

    Day after tomorrow, 26 May, Sunday

    Time Temperature Precipitation Wind Pressure Humidity
    00:00 +9°C° 0 mm 3 mps 757 mmHg 92%
    01:00 +9°C° 0 mm 3 mps 757 mmHg 91%
    02:00 +8°C° 0 mm 3 mps 757 mmHg 91%
    03:00 +8°C° 0 mm 3 mps 756 mmHg 90%
    04:00 +9°C° 0 mm 3 mps 756 mmHg 90%
    05:00 +10°C° 0 mm 4 mps 756 mmHg 90%
    06:00 +11°C° 0 mm 4 mps 756 mmHg 89%
    07:00 +12°C° 0.1 mm 4 mps 756 mmHg 90%
    08:00 +13°C° 0.1 mm 5 mps 756 mmHg 90%
    09:00 +15°C° 0.1 mm 5 mps 755 mmHg 90%
    10:00 +15°C° 0.1 mm 5 mps 755 mmHg 88%
    11:00 +16°C° 0.1 mm 5 mps 755 mmHg 85%
    12:00 +17°C° 0.1 mm 6 mps 755 mmHg 83%
    13:00 +17°C° 0.2 mm 6 mps 755 mmHg 83%
    14:00 +17°C° 0.2 mm 6 mps 754 mmHg 82%
    15:00 +17°C° 0.2 mm 6 mps 754 mmHg 82%
    16:00 +17°C° 0.1 mm 6 mps 753 mmHg 82%
    17:00 +16°C° 0.1 mm 6 mps 753 mmHg 82%
    18:00 +16°C° 0.1 mm 6 mps 753 mmHg 82%
    19:00 +15°C° 0 mm 6 mps 753 mmHg 83%
    20:00 +15°C° 0 mm 6 mps 753 mmHg 83%
    21:00 +14°C° 0 mm 6 mps 752 mmHg 83%
    22:00 +14°C° 0.3 mm 6 mps 752 mmHg 86%
    23:00 +14°C° 0.3 mm 6 mps 752 mmHg 88%

    27 May, Monday

    Time Temperature Precipitation Wind Pressure Humidity
    00:00 +14°C° 0.3 mm 6 mps 752 mmHg 91%
    01:00 +14°C° 0.9 mm 6 mps 751 mmHg 92%
    02:00 +14°C° 0.9 mm 6 mps 751 mmHg 93%
    03:00 +14°C° 0.9 mm 5 mps 751 mmHg 94%
    04:00 +14°C° 0.1 mm 5 mps 751 mmHg 92%
    05:00 +13°C° 0.1 mm 5 mps 751 mmHg 91%
    06:00 +13°C° 0.1 mm 5 mps 751 mmHg 89%
    07:00 +14°C° 0.2 mm 5 mps 752 mmHg 85%
    08:00 +14°C° 0.2 mm 5 mps 752 mmHg 81%
    09:00 +15°C° 0.2 mm 6 mps 752 mmHg 77%
    10:00 +16°C° 0.1 mm 6 mps 752 mmHg 71%
    11:00 +16°C° 0.1 mm 6 mps 752 mmHg 65%
    12:00 +17°C° 0.1 mm 6 mps 752 mmHg 59%
    13:00 +17°C° 0.1 mm 6 mps 752 mmHg 60%
    14:00 +16°C° 0.1 mm 6 mps 752 mmHg 60%
    15:00 +16°C° 0.1 mm 5 mps 752 mmHg 61%
    16:00 +15°C° 0.1 mm 5 mps 752 mmHg 65%
    17:00 +14°C° 0.1 mm 4 mps 752 mmHg 69%
    18:00 +14°C° 0.1 mm 3 mps 751 mmHg 72%
    19:00 +13°C° 0 mm 3 mps 752 mmHg 76%
    20:00 +12°C° 0 mm 3 mps 752 mmHg 79%
    21:00 +11°C° 0 mm 3 mps 752 mmHg 82%
    22:00 +11°C° 0 mm 3 mps 752 mmHg 83%
    23:00 +11°C° 0 mm 3 mps 751 mmHg 84%

    28 May, Tuesday

    Time Temperature Precipitation Wind Pressure Humidity
    00:00 +11°C° 0 mm 3 mps 751 mmHg 86%
    01:00 +10°C° 0 mm 3 mps 751 mmHg 86%
    02:00 +10°C° 0 mm 3 mps 751 mmHg 87%
    03:00 +10°C° 0 mm 3 mps 751 mmHg 88%
    04:00 +10°C° 0.1 mm 3 mps 751 mmHg 87%
    05:00 +10°C° 0.1 mm 3 mps 751 mmHg 87%
    06:00 +11°C° 0.1 mm 3 mps 751 mmHg 87%
    07:00 +12°C° 0.3 mm 3 mps 751 mmHg 84%
    08:00 +13°C° 0.3 mm 2 mps 751 mmHg 80%
    09:00 +14°C° 0.3 mm 2 mps 751 mmHg 77%
    10:00 +14°C° 0.6 mm 3 mps 752 mmHg 77%
    11:00 +14°C° 0.6 mm 4 mps 752 mmHg 78%
    12:00 +14°C° 0.6 mm 4 mps 752 mmHg 78%
    13:00 +14°C° 0.2 mm 5 mps 752 mmHg 75%
    14:00 +14°C° 0.2 mm 5 mps 753 mmHg 72%
    15:00 +14°C° 0.2 mm 6 mps 753 mmHg 69%
    16:00 +14°C° 0 mm 5 mps 754 mmHg 69%
    17:00 +13°C° 0 mm 5 mps 754 mmHg 69%
    18:00 +12°C° 0 mm 4 mps 755 mmHg 70%
    19:00 +11°C° 0 mm 4 mps 755 mmHg 69%
    20:00 +10°C° 0 mm 4 mps 756 mmHg 69%
    21:00 +9°C° 0 mm 3 mps 757 mmHg 68%
    22:00 +8°C° 0 mm 3 mps 757 mmHg 71%
    23:00 +7°C° 0 mm 3 mps 757 mmHg 75%

    29 May, Wednesday

    Time Temperature Precipitation Wind Pressure Humidity
    00:00 +5°C° 0 mm 3 mps 758 mmHg 78%
    01:00 +6°C° 0 mm 2 mps 758 mmHg 80%
    02:00 +5°C° 0 mm 2 mps 758 mmHg 83%
    03:00 +6°C° 0 mm 1 mps 758 mmHg 85%
    04:00 +7°C° 0 mm 1 mps 758 mmHg 82%
    05:00 +8°C° 0 mm 1 mps 758 mmHg 78%
    06:00 +8°C° 0 mm 2 mps 759 mmHg 75%
    07:00 +9°C° 0 mm 2 mps 758 mmHg 69%
    08:00 +12°C° 0 mm 2 mps 758 mmHg 64%
    09:00 +13°C° 0 mm 2 mps 758 mmHg 58%
    10:00 +13°C° 0 mm 3 mps 758 mmHg 57%
    11:00 +13°C° 0 mm 3 mps 758 mmHg 56%
    12:00 +14°C° 0 mm 3 mps 758 mmHg 55%
    13:00 +14°C° 0 mm 3 mps 757 mmHg 54%
    14:00 +14°C° 0 mm 4 mps 757 mmHg 54%
    15:00 +15°C° 0 mm 4 mps 757 mmHg 53%
    16:00 +14°C° 0.1 mm 3 mps 757 mmHg 60%
    17:00 +13°C° 0.1 mm 3 mps 757 mmHg 66%
    18:00 +13°C° 0.1 mm 3 mps 757 mmHg 73%
    19:00 +12°C° 0.1 mm 3 mps 757 mmHg 75%
    20:00 +11°C° 0.1 mm 3 mps 757 mmHg 78%
    21:00 +10°C° 0.1 mm 3 mps 757 mmHg 80%
    22:00 +10°C° 0 mm 3 mps 757 mmHg 81%
    23:00 +8°C° 0 mm 4 mps 757 mmHg 83%
    Show more